LOCATION_NAME,SAMPLE COLLECTION TIME,DOSE EQUIVALENT RATE (nSv/h),GAMMA COUNT RATE R02 (CPM),GAMMA COUNT RATE R03 (CPM),GAMMA COUNT RATE R04 (CPM),GAMMA COUNT RATE R05 (CPM),GAMMA COUNT RATE R06 (CPM),GAMMA COUNT RATE R07 (CPM),GAMMA COUNT RATE R08 (CPM),GAMMA COUNT RATE R09 (CPM),STATUS
NV: RENO,01/01/2021 00:21:00,,2533.00,1394.00,414.00,203.00,127.00,145.00,88.00,34.00,APPROVED
NV: RENO,01/01/2021 01:22:00,,2587.00,1431.00,418.00,202.00,126.00,148.00,92.00,33.00,APPROVED
NV: RENO,01/01/2021 02:22:00,,2702.00,1480.00,425.00,206.00,130.00,151.00,90.00,34.00,APPROVED
NV: RENO,01/01/2021 03:22:00,,2786.00,1527.00,432.00,211.00,127.00,151.00,90.00,35.00,APPROVED
NV: RENO,01/01/2021 04:22:00,,2820.00,1547.00,437.00,212.00,131.00,151.00,88.00,34.00,APPROVED
NV: RENO,01/01/2021 05:22:00,,2833.00,1544.00,443.00,215.00,128.00,153.00,91.00,34.00,APPROVED
NV: RENO,01/01/2021 06:23:00,,2859.00,1560.00,436.00,213.00,130.00,155.00,90.00,34.00,APPROVED
NV: RENO,01/01/2021 07:23:00,,2862.00,1565.00,442.00,216.00,132.00,155.00,89.00,33.00,APPROVED
NV: RENO,01/01/2021 08:23:00,,2882.00,1580.00,441.00,217.00,133.00,157.00,90.00,36.00,APPROVED
NV: RENO,01/01/2021 09:23:00,,2918.00,1614.00,453.00,222.00,131.00,160.00,94.00,35.00,APPROVED
NV: RENO,01/01/2021 10:23:00,,2944.00,1625.00,458.00,223.00,133.00,157.00,91.00,35.00,APPROVED
NV: RENO,01/01/2021 11:24:00,,2961.00,1635.00,461.00,228.00,135.00,159.00,92.00,36.00,APPROVED
NV: RENO,01/01/2021 12:24:00,,2997.00,1653.00,470.00,232.00,137.00,165.00,95.00,36.00,APPROVED
NV: RENO,01/01/2021 13:24:00,,3109.00,1742.00,480.00,236.00,141.00,173.00,95.00,37.00,APPROVED
NV: RENO,01/01/2021 14:24:00,,3146.00,1761.00,491.00,244.00,143.00,175.00,96.00,36.00,APPROVED
NV: RENO,01/01/2021 15:24:00,,3107.00,1733.00,485.00,236.00,142.00,168.00,91.00,36.00,APPROVED
NV: RENO,01/01/2021 16:25:00,,3124.00,1747.00,487.00,240.00,142.00,173.00,96.00,37.00,APPROVED
NV: RENO,01/01/2021 17:25:00,,3071.00,1706.00,479.00,238.00,138.00,172.00,98.00,38.00,APPROVED
NV: RENO,01/01/2021 18:25:00,,2966.00,1669.00,477.00,239.00,140.00,170.00,99.00,37.00,APPROVED
NV: RENO,01/01/2021 19:25:00,,2836.00,1612.00,465.00,232.00,137.00,164.00,98.00,36.00,APPROVED
NV: RENO,01/01/2021 20:25:00,,2712.00,1550.00,452.00,225.00,135.00,161.00,98.00,36.00,APPROVED
NV: RENO,01/01/2021 21:26:00,,2700.00,1520.00,443.00,222.00,133.00,157.00,97.00,35.00,APPROVED
NV: RENO,01/01/2021 22:26:00,,2664.00,1495.00,441.00,220.00,134.00,155.00,94.00,36.00,APPROVED
NV: RENO,01/01/2021 23:26:00,,2694.00,1516.00,443.00,220.00,133.00,157.00,95.00,35.00,APPROVED
NV: RENO,01/02/2021 00:26:00,,2724.00,1533.00,447.00,228.00,135.00,157.00,98.00,36.00,APPROVED
NV: RENO,01/02/2021 01:26:00,,2772.00,1566.00,451.00,227.00,138.00,156.00,98.00,36.00,APPROVED
NV: RENO,01/02/2021 02:27:00,,2835.00,1597.00,454.00,230.00,135.00,161.00,97.00,36.00,APPROVED
NV: RENO,01/02/2021 03:27:00,,2917.00,1629.00,459.00,230.00,135.00,162.00,97.00,36.00,APPROVED
NV: RENO,01/02/2021 04:27:00,,2962.00,1656.00,467.00,235.00,135.00,164.00,98.00,34.00,APPROVED
NV: RENO,01/02/2021 05:27:00,,2938.00,1637.00,463.00,227.00,135.00,161.00,96.00,35.00,APPROVED
NV: RENO,01/02/2021 06:27:00,,2898.00,1596.00,455.00,227.00,134.00,157.00,93.00,36.00,APPROVED
NV: RENO,01/02/2021 07:28:00,,2799.00,1550.00,440.00,213.00,131.00,155.00,91.00,34.00,APPROVED
NV: RENO,01/02/2021 08:28:00,,2804.00,1544.00,439.00,217.00,132.00,156.00,92.00,36.00,APPROVED
NV: RENO,01/02/2021 09:28:00,,2775.00,1534.00,442.00,215.00,131.00,152.00,93.00,34.00,APPROVED
NV: RENO,01/02/2021 10:28:00,,2793.00,1544.00,439.00,219.00,131.00,155.00,94.00,37.00,APPROVED
NV: RENO,01/02/2021 11:28:00,,2811.00,1571.00,447.00,223.00,131.00,152.00,96.00,36.00,APPROVED
NV: RENO,01/02/2021 12:29:00,,2842.00,1575.00,447.00,218.00,130.00,158.00,93.00,37.00,APPROVED
NV: RENO,01/02/2021 13:29:00,,2831.00,1571.00,447.00,220.00,130.00,155.00,92.00,34.00,APPROVED
NV: RENO,01/02/2021 14:29:00,,2853.00,1594.00,445.00,222.00,131.00,153.00,94.00,36.00,APPROVED
NV: RENO,01/02/2021 15:29:00,,2895.00,1610.00,455.00,223.00,136.00,155.00,94.00,34.00,APPROVED
NV: RENO,01/02/2021 16:29:00,,2879.00,1598.00,454.00,224.00,134.00,158.00,92.00,36.00,APPROVED
NV: RENO,01/02/2021 17:30:00,,2864.00,1600.00,457.00,229.00,133.00,161.00,97.00,35.00,APPROVED
NV: RENO,01/02/2021 18:30:00,,2735.00,1531.00,448.00,224.00,133.00,159.00,97.00,37.00,APPROVED
NV: RENO,01/02/2021 19:30:00,,2643.00,1492.00,436.00,220.00,133.00,156.00,93.00,37.00,APPROVED
NV: RENO,01/02/2021 20:30:00,,2544.00,1427.00,425.00,210.00,128.00,154.00,94.00,34.00,APPROVED
NV: RENO,01/02/2021 21:30:00,,2441.00,1374.00,412.00,204.00,126.00,146.00,92.00,35.00,APPROVED
NV: RENO,01/02/2021 22:31:00,,2460.00,1374.00,409.00,204.00,126.00,147.00,91.00,35.00,APPROVED
NV: RENO,01/02/2021 23:31:00,,2471.00,1375.00,415.00,204.00,125.00,148.00,93.00,35.00,APPROVED
NV: RENO,01/03/2021 00:31:00,,2479.00,1360.00,411.00,207.00,124.00,144.00,91.00,34.00,APPROVED
NV: RENO,01/03/2021 01:31:00,,2488.00,1372.00,410.00,200.00,125.00,146.00,93.00,34.00,APPROVED
NV: RENO,01/03/2021 02:31:00,,2530.00,1399.00,418.00,199.00,123.00,146.00,89.00,36.00,APPROVED
NV: RENO,01/03/2021 03:32:00,,2569.00,1418.00,417.00,206.00,128.00,149.00,93.00,36.00,APPROVED
NV: RENO,01/03/2021 04:32:00,,2585.00,1439.00,421.00,209.00,126.00,149.00,92.00,34.00,APPROVED
NV: RENO,01/03/2021 05:32:00,,2603.00,1443.00,418.00,206.00,128.00,149.00,92.00,35.00,APPROVED
NV: RENO,01/03/2021 06:32:00,,2592.00,1446.00,422.00,209.00,125.00,150.00,90.00,33.00,APPROVED
NV: RENO,01/03/2021 07:32:00,,2561.00,1416.00,414.00,204.00,126.00,145.00,92.00,35.00,APPROVED
NV: RENO,01/03/2021 08:33:00,,2576.00,1423.00,420.00,203.00,124.00,144.00,89.00,34.00,APPROVED
NV: RENO,01/03/2021 09:33:00,,2600.00,1430.00,419.00,201.00,123.00,145.00,90.00,35.00,APPROVED
NV: RENO,01/03/2021 10:33:00,,2626.00,1437.00,414.00,203.00,128.00,145.00,89.00,35.00,APPROVED
NV: RENO,01/03/2021 11:33:00,,2647.00,1443.00,416.00,205.00,126.00,144.00,91.00,34.00,APPROVED
NV: RENO,01/03/2021 12:33:00,,2652.00,1441.00,422.00,202.00,128.00,144.00,90.00,34.00,APPROVED
NV: RENO,01/03/2021 13:34:00,,2642.00,1442.00,421.00,205.00,128.00,146.00,89.00,34.00,APPROVED
NV: RENO,01/03/2021 14:34:00,,2634.00,1445.00,420.00,203.00,125.00,145.00,87.00,33.00,APPROVED
NV: RENO,01/03/2021 15:34:00,,2667.00,1449.00,418.00,202.00,125.00,145.00,90.00,35.00,APPROVED
NV: RENO,01/03/2021 16:34:00,,2637.00,1443.00,415.00,205.00,121.00,143.00,89.00,35.00,APPROVED
NV: RENO,01/03/2021 17:34:00,,2558.00,1410.00,412.00,202.00,125.00,139.00,87.00,33.00,APPROVED
NV: RENO,01/03/2021 18:35:00,,2472.00,1362.00,403.00,194.00,122.00,142.00,90.00,33.00,APPROVED
NV: RENO,01/03/2021 19:35:00,,2418.00,1341.00,402.00,195.00,123.00,143.00,91.00,34.00,APPROVED
NV: RENO,01/03/2021 20:35:00,,2401.00,1330.00,405.00,196.00,122.00,141.00,90.00,33.00,APPROVED
NV: RENO,01/03/2021 21:35:00,,2390.00,1330.00,399.00,197.00,123.00,142.00,92.00,34.00,APPROVED
NV: RENO,01/03/2021 22:35:00,,2390.00,1338.00,403.00,195.00,122.00,142.00,91.00,35.00,APPROVED
NV: RENO,01/03/2021 23:36:00,,2427.00,1344.00,405.00,200.00,124.00,142.00,91.00,35.00,APPROVED
NV: RENO,01/04/2021 00:36:00,,2479.00,1364.00,408.00,196.00,125.00,144.00,90.00,34.00,APPROVED
NV: RENO,01/04/2021 01:36:00,,2510.00,1382.00,405.00,202.00,125.00,145.00,91.00,35.00,APPROVED
NV: RENO,01/04/2021 02:36:00,,2557.00,1409.00,411.00,196.00,124.00,144.00,89.00,34.00,APPROVED
NV: RENO,01/04/2021 03:36:00,,2593.00,1428.00,418.00,201.00,126.00,145.00,90.00,35.00,APPROVED
NV: RENO,01/04/2021 04:37:00,,2617.00,1436.00,416.00,205.00,126.00,147.00,92.00,34.00,APPROVED
NV: RENO,01/04/2021 05:37:00,,2665.00,1474.00,430.00,208.00,126.00,149.00,92.00,35.00,APPROVED
NV: RENO,01/04/2021 06:37:00,,2710.00,1503.00,433.00,214.00,128.00,147.00,93.00,35.00,APPROVED
NV: RENO,01/04/2021 07:37:00,,2721.00,1526.00,439.00,218.00,132.00,153.00,94.00,33.00,APPROVED
NV: RENO,01/04/2021 08:37:00,,2792.00,1567.00,446.00,221.00,133.00,155.00,98.00,36.00,APPROVED
NV: RENO,01/04/2021 09:38:00,,2828.00,1580.00,449.00,223.00,136.00,159.00,97.00,37.00,APPROVED
NV: RENO,01/04/2021 10:38:00,,2827.00,1589.00,446.00,223.00,133.00,160.00,96.00,34.00,APPROVED
NV: RENO,01/04/2021 11:38:00,,2836.00,1581.00,453.00,226.00,133.00,159.00,96.00,36.00,APPROVED
NV: RENO,01/04/2021 12:38:00,,2829.00,1583.00,450.00,229.00,131.00,161.00,97.00,35.00,APPROVED
NV: RENO,01/04/2021 13:38:00,,2840.00,1613.00,463.00,234.00,134.00,161.00,96.00,38.00,APPROVED
NV: RENO,01/04/2021 14:39:00,,2775.00,1578.00,456.00,230.00,133.00,162.00,94.00,36.00,APPROVED
NV: RENO,01/04/2021 15:39:00,,2840.00,1609.00,463.00,233.00,138.00,166.00,98.00,38.00,APPROVED
NV: RENO,01/04/2021 16:39:00,,2720.00,1506.00,441.00,218.00,131.00,150.00,92.00,35.00,APPROVED
NV: RENO,01/04/2021 18:39:00,,2532.00,1403.00,410.00,201.00,123.00,144.00,90.00,34.00,APPROVED
NV: RENO,01/04/2021 19:40:00,,2520.00,1393.00,416.00,203.00,124.00,144.00,90.00,34.00,APPROVED
NV: RENO,01/04/2021 20:40:00,,2552.00,1409.00,418.00,204.00,127.00,146.00,91.00,35.00,APPROVED
NV: RENO,01/04/2021 21:40:00,,2472.00,1368.00,407.00,199.00,127.00,144.00,89.00,36.00,APPROVED
NV: RENO,01/04/2021 22:40:00,,2460.00,1361.00,409.00,197.00,123.00,145.00,90.00,35.00,APPROVED
NV: RENO,01/04/2021 23:40:00,,2595.00,1465.00,427.00,212.00,130.00,150.00,92.00,34.00,APPROVED
NV: RENO,01/05/2021 00:41:00,,2791.00,1589.00,457.00,229.00,136.00,160.00,97.00,36.00,APPROVED
NV: RENO,01/05/2021 01:55:00,,2753.00,1518.00,444.00,216.00,130.00,159.00,91.00,34.00,APPROVED
NV: RENO,01/05/2021 02:55:00,,2711.00,1475.00,421.00,202.00,126.00,147.00,87.00,33.00,APPROVED
NV: RENO,01/05/2021 03:55:00,,2701.00,1458.00,419.00,205.00,124.00,145.00,87.00,33.00,APPROVED
NV: RENO,01/05/2021 04:55:00,,2681.00,1446.00,419.00,199.00,124.00,145.00,87.00,33.00,APPROVED
NV: RENO,01/05/2021 05:55:00,,2668.00,1446.00,416.00,198.00,124.00,144.00,85.00,34.00,APPROVED
NV: RENO,01/05/2021 06:56:00,,2680.00,1435.00,418.00,199.00,124.00,144.00,90.00,35.00,APPROVED
NV: RENO,01/05/2021 07:56:00,,2689.00,1450.00,414.00,201.00,125.00,145.00,88.00,34.00,APPROVED
NV: RENO,01/05/2021 08:56:00,,2701.00,1450.00,420.00,200.00,126.00,143.00,87.00,34.00,APPROVED
NV: RENO,01/05/2021 09:56:00,,2702.00,1467.00,421.00,203.00,129.00,146.00,90.00,34.00,APPROVED
NV: RENO,01/05/2021 10:56:00,,2724.00,1483.00,426.00,203.00,127.00,147.00,88.00,33.00,APPROVED
NV: RENO,01/05/2021 11:57:00,,2749.00,1493.00,421.00,205.00,128.00,146.00,89.00,33.00,APPROVED
NV: RENO,01/05/2021 12:57:00,,2770.00,1508.00,427.00,206.00,126.00,148.00,87.00,34.00,APPROVED
NV: RENO,01/05/2021 13:57:00,,2806.00,1524.00,431.00,209.00,129.00,149.00,88.00,34.00,APPROVED
NV: RENO,01/05/2021 14:57:00,,2804.00,1531.00,435.00,212.00,130.00,154.00,88.00,35.00,APPROVED
NV: RENO,01/05/2021 15:57:00,,2814.00,1545.00,439.00,215.00,130.00,150.00,88.00,34.00,APPROVED
NV: RENO,01/05/2021 16:58:00,,2805.00,1540.00,435.00,212.00,130.00,154.00,87.00,35.00,APPROVED
NV: RENO,01/05/2021 17:58:00,,2719.00,1494.00,430.00,212.00,129.00,150.00,91.00,34.00,APPROVED
NV: RENO,01/05/2021 18:58:00,,2605.00,1435.00,421.00,206.00,127.00,147.00,92.00,35.00,APPROVED
NV: RENO,01/05/2021 19:58:00,,2510.00,1402.00,411.00,201.00,126.00,148.00,92.00,35.00,APPROVED
NV: RENO,01/05/2021 20:58:00,,2465.00,1371.00,412.00,203.00,123.00,146.00,93.00,35.00,APPROVED
NV: RENO,01/05/2021 21:59:00,,2463.00,1371.00,408.00,202.00,125.00,143.00,92.00,34.00,APPROVED
NV: RENO,01/05/2021 22:59:00,,2426.00,1369.00,408.00,200.00,127.00,144.00,93.00,33.00,APPROVED
NV: RENO,01/05/2021 23:59:00,,2395.00,1340.00,404.00,202.00,124.00,146.00,93.00,33.00,APPROVED
NV: RENO,01/06/2021 00:59:00,,2421.00,1344.00,411.00,201.00,127.00,144.00,91.00,34.00,APPROVED
NV: RENO,01/06/2021 01:59:00,,2551.00,1431.00,419.00,211.00,129.00,145.00,93.00,34.00,APPROVED
NV: RENO,01/06/2021 03:00:00,,2708.00,1488.00,430.00,213.00,129.00,149.00,92.00,36.00,APPROVED
NV: RENO,01/06/2021 04:00:00,,2772.00,1530.00,436.00,211.00,131.00,153.00,93.00,36.00,APPROVED
NV: RENO,01/06/2021 05:00:00,,2842.00,1575.00,441.00,221.00,132.00,152.00,94.00,35.00,APPROVED
NV: RENO,01/06/2021 06:00:00,,2924.00,1621.00,451.00,223.00,135.00,159.00,94.00,36.00,APPROVED
NV: RENO,01/06/2021 07:00:00,,2925.00,1637.00,457.00,225.00,134.00,162.00,94.00,36.00,APPROVED
NV: RENO,01/06/2021 08:01:00,,2996.00,1673.00,460.00,231.00,137.00,162.00,95.00,36.00,APPROVED
NV: RENO,01/06/2021 09:01:00,,2999.00,1675.00,467.00,233.00,138.00,165.00,97.00,38.00,APPROVED
NV: RENO,01/06/2021 10:01:00,,3035.00,1682.00,476.00,237.00,139.00,169.00,96.00,37.00,APPROVED
NV: RENO,01/06/2021 11:01:00,,3046.00,1704.00,472.00,241.00,140.00,169.00,97.00,36.00,APPROVED
NV: RENO,01/06/2021 12:01:00,,3084.00,1729.00,482.00,240.00,140.00,171.00,98.00,37.00,APPROVED
NV: RENO,01/06/2021 13:02:00,,3094.00,1736.00,481.00,238.00,143.00,167.00,97.00,36.00,APPROVED
NV: RENO,01/06/2021 14:02:00,,3137.00,1762.00,487.00,245.00,143.00,173.00,97.00,37.00,APPROVED
NV: RENO,01/06/2021 15:02:00,,3153.00,1767.00,498.00,247.00,142.00,176.00,96.00,37.00,APPROVED
NV: RENO,01/06/2021 16:02:00,,3137.00,1777.00,490.00,247.00,143.00,176.00,98.00,39.00,APPROVED
NV: RENO,01/06/2021 17:02:00,,3095.00,1743.00,486.00,248.00,142.00,175.00,99.00,36.00,APPROVED
NV: RENO,01/06/2021 18:03:00,,3055.00,1732.00,484.00,244.00,144.00,173.00,97.00,37.00,APPROVED
NV: RENO,01/06/2021 19:03:00,,2990.00,1689.00,478.00,241.00,141.00,168.00,102.00,37.00,APPROVED
NV: RENO,01/06/2021 20:03:00,,2963.00,1678.00,479.00,240.00,140.00,168.00,98.00,37.00,APPROVED
NV: RENO,01/06/2021 21:03:00,,2935.00,1659.00,475.00,240.00,140.00,170.00,104.00,37.00,APPROVED
NV: RENO,01/06/2021 22:03:00,,2791.00,1607.00,463.00,232.00,138.00,164.00,99.00,37.00,APPROVED
NV: RENO,01/06/2021 23:04:00,,2537.00,1454.00,432.00,215.00,130.00,154.00,98.00,37.00,APPROVED
NV: RENO,01/07/2021 00:04:00,,2466.00,1383.00,419.00,207.00,127.00,146.00,94.00,35.00,APPROVED
NV: RENO,01/07/2021 01:04:00,,2539.00,1420.00,417.00,206.00,129.00,151.00,92.00,35.00,APPROVED
NV: RENO,01/07/2021 02:04:00,,2592.00,1437.00,419.00,205.00,132.00,146.00,91.00,35.00,APPROVED
NV: RENO,01/07/2021 03:04:00,,2588.00,1436.00,417.00,204.00,127.00,145.00,90.00,34.00,APPROVED
NV: RENO,01/07/2021 04:05:00,,2604.00,1427.00,416.00,201.00,126.00,141.00,90.00,34.00,APPROVED
NV: RENO,01/07/2021 05:05:00,,2615.00,1430.00,410.00,199.00,126.00,145.00,88.00,34.00,APPROVED
NV: RENO,01/07/2021 06:05:00,,2612.00,1434.00,418.00,201.00,123.00,142.00,87.00,35.00,APPROVED
NV: RENO,01/07/2021 07:05:00,,2632.00,1443.00,416.00,202.00,125.00,144.00,89.00,34.00,APPROVED
NV: RENO,01/07/2021 08:05:00,,2645.00,1452.00,414.00,198.00,127.00,143.00,92.00,34.00,APPROVED
NV: RENO,01/07/2021 09:06:00,,2651.00,1462.00,413.00,204.00,127.00,143.00,88.00,35.00,APPROVED
NV: RENO,01/07/2021 10:06:00,,2676.00,1464.00,420.00,202.00,124.00,144.00,91.00,33.00,APPROVED
NV: RENO,01/07/2021 11:06:00,,2714.00,1483.00,424.00,208.00,129.00,147.00,89.00,34.00,APPROVED
NV: RENO,01/07/2021 12:06:00,,2778.00,1525.00,430.00,208.00,130.00,148.00,87.00,35.00,APPROVED
NV: RENO,01/07/2021 13:06:00,,2812.00,1534.00,435.00,215.00,129.00,150.00,90.00,34.00,APPROVED
NV: RENO,01/07/2021 14:07:00,,2841.00,1554.00,444.00,215.00,129.00,152.00,90.00,35.00,APPROVED
NV: RENO,01/07/2021 15:07:00,,2850.00,1577.00,447.00,217.00,131.00,155.00,89.00,35.00,APPROVED
NV: RENO,01/07/2021 16:07:00,,2938.00,1615.00,452.00,220.00,135.00,157.00,94.00,35.00,APPROVED
NV: RENO,01/07/2021 17:07:00,,2893.00,1622.00,459.00,226.00,134.00,160.00,94.00,38.00,APPROVED
NV: RENO,01/07/2021 18:28:00,,2752.00,1524.00,439.00,213.00,130.00,154.00,93.00,35.00,APPROVED
NV: RENO,01/07/2021 19:28:00,,2632.00,1462.00,427.00,212.00,128.00,151.00,93.00,35.00,APPROVED
NV: RENO,01/07/2021 20:28:00,,2508.00,1397.00,416.00,208.00,127.00,150.00,93.00,35.00,APPROVED
NV: RENO,01/07/2021 21:29:00,,2459.00,1380.00,417.00,204.00,127.00,151.00,91.00,36.00,APPROVED
NV: RENO,01/07/2021 22:29:00,,2455.00,1383.00,421.00,206.00,126.00,149.00,93.00,35.00,APPROVED
NV: RENO,01/07/2021 23:29:00,,2437.00,1368.00,413.00,205.00,127.00,150.00,93.00,33.00,APPROVED
NV: RENO,01/08/2021 00:29:00,,2492.00,1400.00,421.00,206.00,127.00,149.00,94.00,35.00,APPROVED
NV: RENO,01/08/2021 01:29:00,,2586.00,1450.00,428.00,211.00,131.00,151.00,94.00,35.00,APPROVED
NV: RENO,01/08/2021 02:30:00,,2712.00,1513.00,438.00,215.00,131.00,152.00,97.00,34.00,APPROVED
NV: RENO,01/08/2021 03:30:00,,2809.00,1573.00,442.00,220.00,131.00,159.00,94.00,36.00,APPROVED
NV: RENO,01/08/2021 04:30:00,,2846.00,1588.00,450.00,223.00,131.00,156.00,94.00,37.00,APPROVED
NV: RENO,01/08/2021 05:30:00,,2892.00,1607.00,451.00,224.00,134.00,161.00,94.00,35.00,APPROVED
NV: RENO,01/08/2021 06:30:00,,2944.00,1632.00,457.00,230.00,136.00,163.00,95.00,36.00,APPROVED
NV: RENO,01/08/2021 07:31:00,,2984.00,1657.00,466.00,233.00,139.00,163.00,96.00,35.00,APPROVED
NV: RENO,01/08/2021 08:31:00,,3010.00,1680.00,474.00,235.00,138.00,165.00,98.00,37.00,APPROVED
NV: RENO,01/08/2021 09:31:00,,3069.00,1733.00,480.00,248.00,143.00,169.00,98.00,37.00,APPROVED
NV: RENO,01/08/2021 10:31:00,,3129.00,1766.00,490.00,250.00,145.00,173.00,102.00,37.00,APPROVED
NV: RENO,01/08/2021 11:31:00,,3123.00,1774.00,492.00,248.00,143.00,175.00,106.00,37.00,APPROVED
NV: RENO,01/08/2021 12:32:00,,3120.00,1776.00,495.00,251.00,146.00,175.00,103.00,38.00,APPROVED
NV: RENO,01/08/2021 13:32:00,,3059.00,1739.00,494.00,247.00,144.00,176.00,101.00,37.00,APPROVED
NV: RENO,01/08/2021 14:32:00,,3114.00,1774.00,493.00,255.00,145.00,177.00,99.00,38.00,APPROVED
NV: RENO,01/08/2021 15:32:00,,3078.00,1735.00,489.00,245.00,141.00,174.00,99.00,38.00,APPROVED
NV: RENO,01/08/2021 16:32:00,,3003.00,1690.00,479.00,242.00,142.00,167.00,98.00,35.00,APPROVED
NV: RENO,01/08/2021 17:33:00,,2903.00,1643.00,468.00,235.00,136.00,163.00,100.00,37.00,APPROVED
NV: RENO,01/08/2021 18:33:00,,2659.00,1523.00,442.00,225.00,134.00,157.00,97.00,37.00,APPROVED
NV: RENO,01/08/2021 19:33:00,,2428.00,1371.00,414.00,203.00,124.00,143.00,91.00,36.00,APPROVED
NV: RENO,01/08/2021 20:33:00,,2414.00,1347.00,410.00,198.00,123.00,142.00,91.00,35.00,APPROVED
NV: RENO,01/08/2021 21:33:00,,2483.00,1376.00,405.00,197.00,125.00,141.00,90.00,34.00,APPROVED
NV: RENO,01/08/2021 22:34:00,,2512.00,1382.00,414.00,200.00,126.00,143.00,89.00,34.00,APPROVED
NV: RENO,01/08/2021 23:34:00,,2464.00,1367.00,407.00,198.00,125.00,144.00,89.00,34.00,APPROVED
NV: RENO,01/09/2021 00:34:00,,2477.00,1380.00,415.00,202.00,124.00,143.00,91.00,34.00,APPROVED
NV: RENO,01/09/2021 01:34:00,,2566.00,1415.00,417.00,200.00,125.00,146.00,92.00,33.00,APPROVED
NV: RENO,01/09/2021 02:34:00,,2671.00,1467.00,420.00,204.00,124.00,149.00,86.00,34.00,APPROVED
NV: RENO,01/09/2021 03:35:00,,2731.00,1489.00,430.00,204.00,127.00,149.00,85.00,34.00,APPROVED
NV: RENO,01/09/2021 04:35:00,,2765.00,1505.00,427.00,207.00,127.00,150.00,85.00,33.00,APPROVED
NV: RENO,01/09/2021 05:35:00,,2766.00,1506.00,426.00,203.00,128.00,150.00,87.00,34.00,APPROVED
NV: RENO,01/09/2021 06:35:00,,2773.00,1502.00,427.00,205.00,128.00,149.00,88.00,34.00,APPROVED
NV: RENO,01/09/2021 07:35:00,,2796.00,1516.00,431.00,207.00,129.00,147.00,88.00,34.00,APPROVED
NV: RENO,01/09/2021 08:36:00,,2794.00,1536.00,439.00,211.00,128.00,149.00,89.00,35.00,APPROVED
NV: RENO,01/09/2021 09:36:00,,2819.00,1545.00,433.00,211.00,128.00,150.00,90.00,34.00,APPROVED
NV: RENO,01/09/2021 10:36:00,,2864.00,1568.00,448.00,216.00,131.00,158.00,91.00,33.00,APPROVED
NV: RENO,01/09/2021 11:36:00,,2888.00,1590.00,445.00,221.00,132.00,156.00,89.00,33.00,APPROVED
NV: RENO,01/09/2021 12:36:00,,2943.00,1625.00,458.00,225.00,135.00,162.00,90.00,37.00,APPROVED
NV: RENO,01/09/2021 13:37:00,,2974.00,1662.00,460.00,227.00,134.00,163.00,92.00,36.00,APPROVED
NV: RENO,01/09/2021 14:37:00,,3000.00,1667.00,464.00,232.00,139.00,165.00,91.00,36.00,APPROVED
NV: RENO,01/09/2021 15:37:00,,3041.00,1700.00,476.00,233.00,140.00,171.00,95.00,36.00,APPROVED
NV: RENO,01/09/2021 16:37:00,,3054.00,1708.00,480.00,233.00,141.00,169.00,93.00,37.00,APPROVED
NV: RENO,01/09/2021 17:37:00,,2985.00,1661.00,468.00,233.00,138.00,168.00,95.00,36.00,APPROVED
NV: RENO,01/09/2021 18:38:00,,2876.00,1602.00,461.00,227.00,137.00,163.00,95.00,36.00,APPROVED
NV: RENO,01/09/2021 19:38:00,,2749.00,1538.00,446.00,222.00,130.00,157.00,94.00,36.00,APPROVED
NV: RENO,01/09/2021 20:38:00,,2601.00,1453.00,430.00,211.00,133.00,150.00,92.00,35.00,APPROVED
NV: RENO,01/09/2021 21:38:00,,2555.00,1428.00,426.00,212.00,130.00,151.00,94.00,35.00,APPROVED
NV: RENO,01/09/2021 22:38:00,,2495.00,1403.00,422.00,208.00,127.00,151.00,93.00,36.00,APPROVED
NV: RENO,01/09/2021 23:39:00,,2467.00,1387.00,416.00,206.00,128.00,151.00,94.00,34.00,APPROVED
NV: RENO,01/10/2021 00:39:00,,2506.00,1413.00,419.00,211.00,129.00,149.00,93.00,36.00,APPROVED
NV: RENO,01/10/2021 01:39:00,,2589.00,1451.00,420.00,208.00,131.00,147.00,93.00,34.00,APPROVED
NV: RENO,01/10/2021 02:39:00,,2716.00,1491.00,427.00,209.00,130.00,147.00,89.00,34.00,APPROVED
NV: RENO,01/10/2021 03:39:00,,2794.00,1531.00,436.00,211.00,128.00,149.00,90.00,35.00,APPROVED
NV: RENO,01/10/2021 04:40:00,,2842.00,1562.00,442.00,217.00,132.00,154.00,92.00,33.00,APPROVED
NV: RENO,01/10/2021 05:40:00,,2887.00,1584.00,451.00,219.00,133.00,155.00,91.00,35.00,APPROVED
NV: RENO,01/10/2021 06:40:00,,2912.00,1600.00,447.00,223.00,134.00,156.00,93.00,37.00,APPROVED
NV: RENO,01/10/2021 08:40:00,,3001.00,1683.00,470.00,236.00,138.00,165.00,98.00,36.00,APPROVED
NV: RENO,01/10/2021 09:41:00,,3008.00,1684.00,471.00,237.00,138.00,163.00,99.00,37.00,APPROVED
NV: RENO,01/10/2021 10:41:00,,3026.00,1696.00,477.00,239.00,139.00,168.00,99.00,38.00,APPROVED
NV: RENO,01/10/2021 11:41:00,,3058.00,1730.00,479.00,242.00,143.00,168.00,98.00,36.00,APPROVED
NV: RENO,01/10/2021 12:41:00,,3121.00,1763.00,495.00,247.00,142.00,173.00,98.00,39.00,APPROVED
NV: RENO,01/10/2021 13:41:00,,3130.00,1757.00,496.00,251.00,142.00,174.00,100.00,37.00,APPROVED
NV: RENO,01/10/2021 14:42:00,,3148.00,1781.00,499.00,249.00,146.00,177.00,99.00,37.00,APPROVED
NV: RENO,01/10/2021 15:42:00,,3172.00,1805.00,506.00,253.00,144.00,179.00,98.00,37.00,APPROVED
NV: RENO,01/10/2021 16:42:00,,3196.00,1806.00,506.00,255.00,147.00,182.00,101.00,39.00,APPROVED
NV: RENO,01/10/2021 17:42:00,,3048.00,1740.00,489.00,247.00,141.00,172.00,102.00,38.00,APPROVED
NV: RENO,01/10/2021 18:42:00,,2920.00,1668.00,478.00,242.00,143.00,168.00,104.00,38.00,APPROVED
NV: RENO,01/10/2021 19:43:00,,2777.00,1583.00,464.00,232.00,136.00,160.00,101.00,37.00,APPROVED
NV: RENO,01/10/2021 20:43:00,,2783.00,1584.00,464.00,232.00,138.00,161.00,100.00,37.00,APPROVED
NV: RENO,01/10/2021 21:43:00,,2703.00,1554.00,461.00,228.00,137.00,161.00,98.00,38.00,APPROVED
NV: RENO,01/10/2021 22:43:00,,2674.00,1518.00,450.00,224.00,137.00,159.00,102.00,39.00,APPROVED
NV: RENO,01/10/2021 23:43:00,,2701.00,1556.00,460.00,231.00,137.00,164.00,99.00,37.00,APPROVED
NV: RENO,01/11/2021 00:44:00,,2700.00,1550.00,455.00,228.00,139.00,163.00,99.00,35.00,APPROVED
NV: RENO,01/11/2021 01:44:00,,2762.00,1581.00,458.00,231.00,137.00,163.00,98.00,38.00,APPROVED
NV: RENO,01/11/2021 02:44:00,,2874.00,1614.00,459.00,235.00,138.00,163.00,96.00,36.00,APPROVED
NV: RENO,01/11/2021 03:44:00,,2881.00,1623.00,458.00,229.00,136.00,161.00,97.00,36.00,APPROVED
NV: RENO,01/11/2021 04:44:00,,2968.00,1667.00,465.00,231.00,137.00,164.00,96.00,35.00,APPROVED
NV: RENO,01/11/2021 05:45:00,,3007.00,1679.00,471.00,234.00,141.00,165.00,98.00,37.00,APPROVED
NV: RENO,01/11/2021 06:45:00,,3043.00,1704.00,474.00,239.00,141.00,165.00,99.00,37.00,APPROVED
NV: RENO,01/11/2021 07:45:00,,3053.00,1718.00,477.00,241.00,141.00,169.00,98.00,36.00,APPROVED
NV: RENO,01/11/2021 08:45:00,,3057.00,1739.00,487.00,245.00,141.00,173.00,100.00,37.00,APPROVED
NV: RENO,01/11/2021 09:45:00,,3113.00,1753.00,490.00,249.00,144.00,175.00,100.00,37.00,APPROVED
NV: RENO,01/11/2021 10:46:00,,3144.00,1777.00,498.00,253.00,148.00,178.00,103.00,38.00,APPROVED
NV: RENO,01/11/2021 11:46:00,,3170.00,1813.00,503.00,255.00,149.00,179.00,101.00,39.00,APPROVED